This is the latest recevied weather packets stored in our database for station/object AE5HO. If no packets are shown the sender has not sent any weather packets the latest 10 day(s).
| Time | Temp. | Humidity | Pressure | Rain* | Wind** | Luminosity | Snow |
|---|---|---|---|---|---|---|---|
| 1787857078 | 36.67° C | 47% | 1015.6 hPa | 0 mm | - | 111 W/m² | - |
| 1787856773 | 37.22° C | 47% | 1015.8 hPa | 0 mm | - | 88 W/m² | - |
| 1787856467 | 36.67° C | 48% | 1015.8 hPa | 0 mm | - | 91 W/m² | - |
| 1787856164 | 36.67° C | 47% | 1016 hPa | 0 mm | - | 89 W/m² | - |
| 1787855859 | 36.67° C | 48% | 1016.1 hPa | 0 mm | - | 89 W/m² | - |
| 1787855559 | 36.11° C | 48% | 1016.4 hPa | 0 mm | - | 91 W/m² | - |
| 1787855254 | 36.11° C | 53% | 1016.4 hPa | 0 mm | - | 100 W/m² | - |
| 1787854949 | 36.11° C | 49% | 1016.4 hPa | 0 mm | - | 93 W/m² | - |
| 1787854645 | 35.56° C | 53% | 1016.6 hPa | 0 mm | - | 102 W/m² | - |
| 1787854339 | 36.11° C | 49% | 1016.5 hPa | 0 mm | - | 127 W/m² | - |
| 1787854034 | 36.11° C | 50% | 1016.4 hPa | 0 mm | - | 100 W/m² | - |
| 1787853733 | 35.56° C | 50% | 1016.3 hPa | 0 mm | - | 94 W/m² | - |
| 1787853432 | 35.56° C | 51% | 1016.6 hPa | 0 mm | - | 114 W/m² | - |
| 1787853132 | 35.56° C | 51% | 1016.6 hPa | 0 mm | - | 76 W/m² | - |
| 1787852826 | 35° C | 51% | 1016.5 hPa | 0 mm | - | 136 W/m² | - |
| 1787852527 | 35° C | 51% | 1016.9 hPa | 0 mm | - | 261 W/m² | - |
| 1787852221 | 35° C | 52% | 1016.8 hPa | 0 mm | - | 172 W/m² | - |
| 1787851921 | 35° C | 53% | 1016.5 hPa | 0 mm | - | 91 W/m² | - |
| 1787851615 | 35° C | 54% | 1016.8 hPa | 0 mm | - | 467 W/m² | - |
| 1787851315 | 35° C | 54% | 1016.8 hPa | 0 mm | - | 72 W/m² | - |
| 1787851010 | 34.44° C | 54% | 1017 hPa | 0 mm | - | 170 W/m² | - |
| 1787850706 | 34.44° C | 55% | 1017.1 hPa | 0 mm | - | 104 W/m² | - |
| 1787850401 | 34.44° C | 55% | 1017 hPa | 0 mm | - | 601 W/m² | - |
| 1787850097 | 34.44° C | 55% | 1017.1 hPa | 0 mm | - | 624 W/m² | - |
| 1787849796 | 34.44° C | 56% | 1017.1 hPa | 0 mm | - | 635 W/m² | - |
* Rain latest hour (hover to see other rain measurements)
** Current wind speed in m/s (hover to see current wind gust speed)